Location: Banios
(43.0451°N, 0.2335°E)
Time: 13:55:19
(UTC+00:00)

deb Chang Zheng 4 - Pass Details

Date: 25 January 2021
Orbit: 599 x 623 km, 98.6° (Epoch: 25 February)

Event Time Altitude Azimuth Distance (km) Brightness Sun altitude
Rises 05:14:51 0° 14° (NNE) 2,869 7.1 -23.0°
Reaches altitude 10° 05:17:03 10° 15° (NNE) 1,957 6.2 -22.6°
Maximum altitude 05:21:17 84° 102° (ESE) 610 3.4 -21.8°
Drops below altitude 10° 05:25:30 10° 193° (SSW) 1,935 6.0 -21.0°
Sets 05:27:39 0° 194° (SSW) 2,832 6.9 -20.6°
